Location: Unspecified
(49.2170°N, 0.0000°E)
Time: 05:25:58
(UTC+00:00)

Vanguard 3 - Pass Details

Date: 27 June 2019
Orbit: 508 x 3263 km, 33.3° (Epoch: 21 August)

Event Time Altitude Azimuth Distance (km) Brightness Sun altitude
Rises 10:10:07 0° 233° (SW) 6,975 11.8 55.9°
Reaches altitude 10° 10:15:51 10° 226° (SW) 5,663 11.5 56.6°
Maximum altitude 10:28:58 32° 172° (S) 3,169 11.2 58.2°
Drops below altitude 10° 10:37:35 10° 114° (ESE) 3,688 11.1 59.1°
Sets 10:40:26 0° 104° (ESE) 4,329 11.2 59.4°
